Welcome to the New NWS' Forecast!
Most changes are behind the scenes, but click here for differences you might notice.
Latest weather observations around

Bremerton, Bremerton National Airport (KPWT)

Using International System of Units (Switch to English Units)
Date/ Time (PDT) Wind (kph) Vis. (km) Weather Sky Cond. Temp (°C) Rel. Humidity Wind Chill (°C) Heat Index (°C) Pressure Precip. (cm)
Air Dwpt 6 hour Altimeter (hPa) Sea level (hPa) 1 hr 3 hr 6 hr
Max Min
Aug 15 03:56 Calm 8.05 Fog/Mist CLR 12 10     86%     1012.5        
Aug 15 02:56 SSW 5 8.05 Fog/Mist CLR 12 10     89%     1012.2        
Aug 15 01:56 Calm 8.05 Haze CLR 14 11     81%     1011.9 1012.9      
Aug 15 00:56 Calm 8.05 Haze CLR 17 11     70%     1011.5        
Aug 14 23:56 ENE 5 8.05 Haze CLR 19 12     63%     1011.2        
Aug 14 22:56 NNE 5 8.05 Haze CLR 19 12     61%     1011.2 1012.2      
Aug 14 21:56 NE 11 8.05 Haze CLR 21 12     55%     1011.2        
Aug 14 20:56 NE 11 6.44 Haze CLR 22 13     59%   21 1010.8        
Aug 14 19:56 ENE 8 6.44 Haze CLR 24 14     52%   24 1010.5        
Aug 14 18:56 ENE 13 6.44 Haze CLR 27 14     45%   27 1010.5        
Aug 14 17:56 ENE 15 6.44 Haze CLR 28 14     43%   28 1010.8        
Aug 14 16:56 ENE 15 6.44 Haze CLR 29 15     43%   29 1011.2        
Aug 14 15:56 ENE 13 6.44 Haze CLR 29 14     41%   29 1011.9 1012.8      
Aug 14 14:56 ENE 15 6.44 Haze CLR 28 14     43%   28 1012.2 1013.5      
Aug 14 13:56 ENE 15 6.44 Haze CLR 28 14     44%   28 1012.9 1014.2      
Aug 14 12:56 ENE 13 6.44 Haze CLR 27 15     49%   27 1013.6 1014.7      
Aug 14 11:56 NE 18 6.44 Haze CLR 25 14     52%   25 1013.9        
Aug 14 10:56 E 13 6.44 Haze CLR 23 14     59%   23 1014.6 1015.7      
Aug 14 09:56 NE 13 6.44 Haze CLR 21 14     63%     1014.6        
Aug 14 08:56 ENE 13 6.44 Haze CLR 19 14     73%     1014.9        
Aug 14 07:56 Calm 6.44 Fog/Mist CLR 15 14     93%     1014.9        
Aug 14 06:56 Calm 6.44 Fog/Mist CLR 12 11     96%              
Aug 14 05:56 Calm 6.44 Fog/Mist CLR 12 11     96%     1014.6        
Aug 14 03:56 Calm 9.66 Fog/Mist CLR 13 12     93%     1014.9        
Aug 14 02:56 Calm 8.05 Fog/Mist CLR 11 11     97%     1014.9 1016.3      
Aug 14 01:56 Calm 9.66 Fog/Mist CLR 11 10     93%     1015.2        
Aug 14 00:56 Calm 8.05 Fog/Mist CLR 12 12     97%     1015.2        
Aug 13 23:56 SE 5 9.66 Fog/Mist CLR 14 12     87%     1015.2        
Aug 13 22:56 Calm 9.66 Haze CLR 17 13     78%     1015.2        
Aug 13 21:56 NNE 13 11.27 Clear CLR 19 14     73%     1015.2        
Aug 13 20:56 NNE 17 8.05 Haze CLR 19 14     73%     1015.2        
Aug 13 19:56 NE 9 9.66 Haze CLR 21 14     65%     1015.2        
Aug 13 18:56 NE 17 9.66 Haze CLR 22 14     61%   22 1014.9 1016.3      
Aug 13 17:56 NE 11 11.27 Clear CLR 24 14     55%   24 1015.6 1016.8      
Aug 13 16:56 NE 18 11.27 Clear CLR 24 14     54%   24 1015.9        
Aug 13 15:56 NNE 22 11.27 Clear CLR 25 14     52%   25 1016.6 1017.8      
Aug 13 14:56 ENE 18 12.87 Clear CLR 24 15     56%   24 1017.3 1018.6      
Aug 13 13:56 NE 17 11.27 Clear CLR 24 15     56%   24 1017.6 1019.1      
Aug 13 11:56 ENE 17 16.09 Clear CLR 22 15     64%   22 1018.6 1020      
Aug 13 10:56 NE 15 16.09 Clear CLR 21 14     66%     1019 1020.4      
Aug 13 09:56 NE 15 16.09 Clear CLR 19 14     73%     1019.3 1020.7      
Aug 13 08:56 NE 17 16.09 Clear CLR 17 13     75%     1019.7 1021      
Aug 13 07:56 NE 13 16.09 Clear CLR 15 12     83%     1019.7 1021.1      
Aug 13 06:56 ENE 11 16.09 Clear CLR 13 11     87%     1019.3 1020.9      
Aug 13 05:56 ENE 9 16.09 Clear CLR 13 11     89%     1019.3 1020.7      
Aug 13 03:56 ENE 9 16.09 Clear CLR 13 11     89%     1019.7        
Aug 12 20:56 NE 11 16.09 Clear CLR 16 12     75%     1020.3        
Aug 12 18:56 NNE 15 16.09 Clear CLR 19 13     68%     1020        
Aug 12 16:56 NE 15 16.09 Clear CLR 21 13     59%     1020.3        
Aug 12 14:56 8 16.09 Mostly Clear FEW031 22 13     57%   22 1021 1022.5      
Aug 12 13:56 NNW 13 16.09 Cloudy FEW027 OVC041 21 13     61%     1022        
Aug 12 13:48 5 16.09 Cloudy SCT027 OVC041 20 13     64%     1022        
Aug 12 07:16 SSW 8 16.09 Cloudy SCT008 BKN013 OVC046 15 14     94%     1021.7        
Aug 12 06:56 SSW 5 16.09 Cloudy OVC008 15 14     93%     1022        
Aug 12 05:56 SSW 9 14.48 Cloudy SCT005 BKN011 OVC036 14 14     97%     1021.3 1022.8      
Aug 12 02:56 5 16.09 Cloudy OVC009 14 14     97%     1020.3 1021.6      
Aug 12 01:56 S 9 16.09 Cloudy BKN007 OVC025 14 13     96%     1019.7 1021.3      
Aug 12 00:56 Calm 16.09 Clear CLR 13 12     93%     1020        
May 15 09:04 SW 13 16.09 Cloudy OVC007 13 11     88%     1014.6        
May 14 08:56 Calm 16.09 Clear CLR 17 12     75%     1014.9 1016.4      
May 14 07:56 SSW 9 16.09 Clear CLR 14 12     87%     1015.2        
Notice The following observation data may not be complete
May 13 20:56 Calm 16.09 Clear CLR   11      %     1012.5        
May 13 12:56 NNE 11 16.09 Clear CLR 24 13     50%   24 1014.2        
May 13 02:56 Calm 16.09 Clear CLR 8 7     90%     1014.9 1016.4      
May 12 17:56 ENE 15 16.09 Clear CLR 23 9     40%   23 1015.6        
May 12 01:56 Calm 16.09 Clear CLR 7 7     100%     1022.7        
May 12 00:56 Calm 16.09 Clear CLR 8 8     97%     1022.7        
May 11 15:56 Calm 16.09 Mostly Cloudy BKN033 17 9     60%     1023.7        
May 11 12:56 SSE 8 16.09 Cloudy BKN024 OVC028 14 9     74%     1025.1 1027      
May 11 07:56 Calm 16.09 Cloudy BKN019 OVC027 9 8     93%     1025.1 1026.8      
Jun 11 09:56 SSW 5 16.09 Cloudy OVC005 11 9     89%     1018        
Jun 10 19:56 NNE 8 16.09 Clear CLR 17 7     53%     1012.5 1014.2      
Jun 10 15:56 WSW 5 16.09 Cloudy SCT046 OVC060 16 8     58%     1011.2        
Notice The following observation data may not be complete
Jun 10 08:40   16.09 Cloudy OVC006          %              
Jun 10 02:15 WSW 11 16.09 Cloudy OVC004 9 8     93% 7   1011.5        
Jun 09 16:56 SSW 13 16.09 Light Rain FEW026 14 8     65%     1010.2 1012.1 0   0
Jun 09 04:36 Calm 16.09 Cloudy SCT021 BKN028 OVC048 9 8     93%     1013.6        
Jun 08 09:48 SSW 15 16.09 Light Rain BKN006 OVC030 13 12     94%     1005.1   0    
Jun 08 04:56 SW 5 16.09 Light Rain SCT002 BKN010 OVC043 11 11     100%     1003.7   0   0
Jun 07 09:56 Calm 16.09 Clear   19 9     52%     1009.2        
Jun 06 02:56 E 8 16.09 Clear   12 6     66%     1016.9        
Jun 05 16:56 ENE 15 16.09 Clear   22 4     31%   21 1018.3